owner,sensor,date,latitude,longitude,vertical_datum,sea_water_practical_salinity,qcFlag 
WAVCIS,ioos:station:WAVCIS:CSI16:1,2010-11-01T00:00:00Z,29.4012,-89.0355,1.0,28.612,11111222 
WAVCIS,ioos:station:WAVCIS:CSI16:1,2010-11-01T00:15:00Z,29.4012,-89.0355,1.0,28.681,11111222 
WAVCIS,ioos:station:WAVCIS:CSI16:1,2010-11-01T00:30:00Z,29.4012,-89.0355,1.0,28.242,11111222 
WAVCIS,ioos:station:WAVCIS:CSI16:1,2010-11-01T00:45:00Z,29.4012,-89.0355,1.0,28.358,11111222 
WAVCIS,ioos:station:WAVCIS:CSI16:1,2010-11-01T01:00:00Z,29.4012,-89.0355,1.0,27.926,11111222 
WAVCIS,ioos:station:WAVCIS:CSI16:1,2010-11-01T01:15:00Z,29.4012,-89.0355,1.0,28.072,11111222 
WAVCIS,ioos:station:WAVCIS:CSI16:1,2010-11-01T01:30:00Z,29.4012,-89.0355,1.0,28.137,11111222 
WAVCIS,ioos:station:WAVCIS:CSI16:1,2010-11-01T01:45:00Z,29.4012,-89.0355,1.0,27.82,11111222 
WAVCIS,ioos:station:WAVCIS:CSI16:1,2010-11-01T02:00:00Z,29.4012,-89.0355,1.0,27.85,11111222 
WAVCIS,ioos:station:WAVCIS:CSI16:1,2010-11-01T02:15:00Z,29.4012,-89.0355,1.0,27.236,11111222 
WAVCIS,ioos:station:WAVCIS:CSI16:1,2010-11-01T02:30:00Z,29.4012,-89.0355,1.0,27.208,11111222 
WAVCIS,ioos:station:WAVCIS:CSI16:1,2010-11-01T02:45:00Z,29.4012,-89.0355,1.0,27.335,11111222 
WAVCIS,ioos:station:WAVCIS:CSI16:1,2010-11-01T03:00:00Z,29.4012,-89.0355,1.0,27.35,11111222 
WAVCIS,ioos:station:WAVCIS:CSI16:1,2010-11-01T03:15:00Z,29.4012,-89.0355,1.0,27.396,11111222 
WAVCIS,ioos:station:WAVCIS:CSI16:1,2010-11-01T03:30:00Z,29.4012,-89.0355,1.0,27.164,11111222 
WAVCIS,ioos:station:WAVCIS:CSI16:1,2010-11-01T03:45:00Z,29.4012,-89.0355,1.0,27.104,11111222 
WAVCIS,ioos:station:WAVCIS:CSI16:1,2010-11-01T04:00:00Z,29.4012,-89.0355,1.0,27.178,11111222 
WAVCIS,ioos:station:WAVCIS:CSI16:1,2010-11-01T04:15:00Z,29.4012,-89.0355,1.0,27.211,11111222 
WAVCIS,ioos:station:WAVCIS:CSI16:1,2010-11-01T04:30:00Z,29.4012,-89.0355,1.0,27.149,11111222 
WAVCIS,ioos:station:WAVCIS:CSI16:1,2010-11-01T04:45:00Z,29.4012,-89.0355,1.0,27.067,11111222 
WAVCIS,ioos:station:WAVCIS:CSI16:1,2010-11-01T05:00:00Z,29.4012,-89.0355,1.0,26.944,11111222 
WAVCIS,ioos:station:WAVCIS:CSI16:1,2010-11-01T05:15:00Z,29.4012,-89.0355,1.0,26.825,11111222 
WAVCIS,ioos:station:WAVCIS:CSI16:1,2010-11-01T05:30:00Z,29.4012,-89.0355,1.0,26.717,11111222 
WAVCIS,ioos:station:WAVCIS:CSI16:1,2010-11-01T05:45:00Z,29.4012,-89.0355,1.0,26.535,11111222 
WAVCIS,ioos:station:WAVCIS:CSI16:1,2010-11-01T06:00:00Z,29.4012,-89.0355,1.0,26.38,11111222 
WAVCIS,ioos:station:WAVCIS:CSI16:1,2010-11-01T06:15:00Z,29.4012,-89.0355,1.0,25.943,11111222 
WAVCIS,ioos:station:WAVCIS:CSI16:1,2010-11-01T06:30:00Z,29.4012,-89.0355,1.0,25.903,11111222 
WAVCIS,ioos:station:WAVCIS:CSI16:1,2010-11-01T06:45:00Z,29.4012,-89.0355,1.0,25.748,11111222 
WAVCIS,ioos:station:WAVCIS:CSI16:1,2010-11-01T07:00:00Z,29.4012,-89.0355,1.0,25.832,11111222 
WAVCIS,ioos:station:WAVCIS:CSI16:1,2010-11-01T07:15:00Z,29.4012,-89.0355,1.0,25.807,11111222 
WAVCIS,ioos:station:WAVCIS:CSI16:1,2010-11-01T07:30:00Z,29.4012,-89.0355,1.0,25.806,11111222 
WAVCIS,ioos:station:WAVCIS:CSI16:1,2010-11-01T07:45:00Z,29.4012,-89.0355,1.0,25.599,11111222 
WAVCIS,ioos:station:WAVCIS:CSI16:1,2010-11-01T08:00:00Z,29.4012,-89.0355,1.0,25.6,11111222 
WAVCIS,ioos:station:WAVCIS:CSI16:1,2010-11-01T08:15:00Z,29.4012,-89.0355,1.0,25.196,11111222 
WAVCIS,ioos:station:WAVCIS:CSI16:1,2010-11-01T08:30:00Z,29.4012,-89.0355,1.0,25.014,11111222 
WAVCIS,ioos:station:WAVCIS:CSI16:1,2010-11-01T08:45:00Z,29.4012,-89.0355,1.0,25.641,11111222 
WAVCIS,ioos:station:WAVCIS:CSI16:1,2010-11-01T09:00:00Z,29.4012,-89.0355,1.0,28.971,11111222 
WAVCIS,ioos:station:WAVCIS:CSI16:1,2010-11-01T09:15:00Z,29.4012,-89.0355,1.0,29.016,11111222 
WAVCIS,ioos:station:WAVCIS:CSI16:1,2010-11-01T09:30:00Z,29.4012,-89.0355,1.0,28.988,11111222 
WAVCIS,ioos:station:WAVCIS:CSI16:1,2010-11-01T09:45:00Z,29.4012,-89.0355,1.0,28.872,11111222 
WAVCIS,ioos:station:WAVCIS:CSI16:1,2010-11-01T10:00:00Z,29.4012,-89.0355,1.0,29.69,11111222 
WAVCIS,ioos:station:WAVCIS:CSI16:1,2010-11-01T10:15:00Z,29.4012,-89.0355,1.0,29.525,11111222 
WAVCIS,ioos:station:WAVCIS:CSI16:1,2010-11-01T10:30:00Z,29.4012,-89.0355,1.0,29.86,11111222 
WAVCIS,ioos:station:WAVCIS:CSI16:1,2010-11-01T10:45:00Z,29.4012,-89.0355,1.0,28.06,11111222 
WAVCIS,ioos:station:WAVCIS:CSI16:1,2010-11-01T11:00:00Z,29.4012,-89.0355,1.0,29.227,11111222 
WAVCIS,ioos:station:WAVCIS:CSI16:1,2010-11-01T11:15:00Z,29.4012,-89.0355,1.0,26.731,11111222 
WAVCIS,ioos:station:WAVCIS:CSI16:1,2010-11-01T11:30:00Z,29.4012,-89.0355,1.0,29.615,11111222 
WAVCIS,ioos:station:WAVCIS:CSI16:1,2010-11-01T11:45:00Z,29.4012,-89.0355,1.0,30.043,11111222 
WAVCIS,ioos:station:WAVCIS:CSI16:1,2010-11-01T12:00:00Z,29.4012,-89.0355,1.0,30.157,11111222 
WAVCIS,ioos:station:WAVCIS:CSI16:1,2010-11-01T12:15:00Z,29.4012,-89.0355,1.0,30.149,11111222 
WAVCIS,ioos:station:WAVCIS:CSI16:1,2010-11-01T12:30:00Z,29.4012,-89.0355,1.0,30.136,11111222 
WAVCIS,ioos:station:WAVCIS:CSI16:1,2010-11-01T12:45:00Z,29.4012,-89.0355,1.0,30.146,11111222 
WAVCIS,ioos:station:WAVCIS:CSI16:1,2010-11-01T13:00:00Z,29.4012,-89.0355,1.0,30.072,11111222 
WAVCIS,ioos:station:WAVCIS:CSI16:1,2010-11-01T13:15:00Z,29.4012,-89.0355,1.0,30.07,11111222 
WAVCIS,ioos:station:WAVCIS:CSI16:1,2010-11-01T13:30:00Z,29.4012,-89.0355,1.0,29.274,11111222 
WAVCIS,ioos:station:WAVCIS:CSI16:1,2010-11-01T13:45:00Z,29.4012,-89.0355,1.0,27.976,11111222 
WAVCIS,ioos:station:WAVCIS:CSI16:1,2010-11-01T14:00:00Z,29.4012,-89.0355,1.0,29.893,11111222 
WAVCIS,ioos:station:WAVCIS:CSI16:1,2010-11-01T14:15:00Z,29.4012,-89.0355,1.0,29.978,11111222 
WAVCIS,ioos:station:WAVCIS:CSI16:1,2010-11-01T14:30:00Z,29.4012,-89.0355,1.0,29.863,11111222 
WAVCIS,ioos:station:WAVCIS:CSI16:1,2010-11-01T14:45:00Z,29.4012,-89.0355,1.0,30.015,11111222 
WAVCIS,ioos:station:WAVCIS:CSI16:1,2010-11-01T15:00:00Z,29.4012,-89.0355,1.0,30.056,11111222 
WAVCIS,ioos:station:WAVCIS:CSI16:1,2010-11-01T15:15:00Z,29.4012,-89.0355,1.0,29.686,11111222 
WAVCIS,ioos:station:WAVCIS:CSI16:1,2010-11-01T15:30:00Z,29.4012,-89.0355,1.0,29.547,11111222 
WAVCIS,ioos:station:WAVCIS:CSI16:1,2010-11-01T15:45:00Z,29.4012,-89.0355,1.0,29.446,11111222 
WAVCIS,ioos:station:WAVCIS:CSI16:1,2010-11-01T16:00:00Z,29.4012,-89.0355,1.0,29.229,11111222 
WAVCIS,ioos:station:WAVCIS:CSI16:1,2010-11-01T16:15:00Z,29.4012,-89.0355,1.0,29.385,11111222 
WAVCIS,ioos:station:WAVCIS:CSI16:1,2010-11-01T16:30:00Z,29.4012,-89.0355,1.0,28.406,11111222 
WAVCIS,ioos:station:WAVCIS:CSI16:1,2010-11-01T16:45:00Z,29.4012,-89.0355,1.0,28.361,11111222 
WAVCIS,ioos:station:WAVCIS:CSI16:1,2010-11-01T17:00:00Z,29.4012,-89.0355,1.0,29.038,11111222 
WAVCIS,ioos:station:WAVCIS:CSI16:1,2010-11-01T17:15:00Z,29.4012,-89.0355,1.0,27.195,11111222 
WAVCIS,ioos:station:WAVCIS:CSI16:1,2010-11-01T17:30:00Z,29.4012,-89.0355,1.0,27.877,11111222 
WAVCIS,ioos:station:WAVCIS:CSI16:1,2010-11-01T17:45:00Z,29.4012,-89.0355,1.0,27.675,11111222 
WAVCIS,ioos:station:WAVCIS:CSI16:1,2010-11-01T18:00:00Z,29.4012,-89.0355,1.0,27.735,11111222 
WAVCIS,ioos:station:WAVCIS:CSI16:1,2010-11-01T18:15:00Z,29.4012,-89.0355,1.0,28.223,11111222 
WAVCIS,ioos:station:WAVCIS:CSI16:1,2010-11-01T18:30:00Z,29.4012,-89.0355,1.0,27.962,11111222 
WAVCIS,ioos:station:WAVCIS:CSI16:1,2010-11-01T18:45:00Z,29.4012,-89.0355,1.0,27.989,11111222 
WAVCIS,ioos:station:WAVCIS:CSI16:1,2010-11-01T19:00:00Z,29.4012,-89.0355,1.0,28.014,11111222 
WAVCIS,ioos:station:WAVCIS:CSI16:1,2010-11-01T19:15:00Z,29.4012,-89.0355,1.0,28.003,11111222 
WAVCIS,ioos:station:WAVCIS:CSI16:1,2010-11-01T19:30:00Z,29.4012,-89.0355,1.0,28.182,11111222 
WAVCIS,ioos:station:WAVCIS:CSI16:1,2010-11-01T19:45:00Z,29.4012,-89.0355,1.0,28.013,11111222 
WAVCIS,ioos:station:WAVCIS:CSI16:1,2010-11-01T20:00:00Z,29.4012,-89.0355,1.0,27.851,11111222 
WAVCIS,ioos:station:WAVCIS:CSI16:1,2010-11-01T20:15:00Z,29.4012,-89.0355,1.0,28.193,11111222 
WAVCIS,ioos:station:WAVCIS:CSI16:1,2010-11-01T20:30:00Z,29.4012,-89.0355,1.0,28.775,11111222 
WAVCIS,ioos:station:WAVCIS:CSI16:1,2010-11-01T20:45:00Z,29.4012,-89.0355,1.0,29.103,11111222 
WAVCIS,ioos:station:WAVCIS:CSI16:1,2010-11-01T21:00:00Z,29.4012,-89.0355,1.0,29.473,11111222 
WAVCIS,ioos:station:WAVCIS:CSI16:1,2010-11-01T21:15:00Z,29.4012,-89.0355,1.0,29.507,11111222 
WAVCIS,ioos:station:WAVCIS:CSI16:1,2010-11-01T21:30:00Z,29.4012,-89.0355,1.0,28.778,11111222 
WAVCIS,ioos:station:WAVCIS:CSI16:1,2010-11-01T21:45:00Z,29.4012,-89.0355,1.0,29.379,11111222 
WAVCIS,ioos:station:WAVCIS:CSI16:1,2010-11-01T22:00:00Z,29.4012,-89.0355,1.0,29.374,11111222 
WAVCIS,ioos:station:WAVCIS:CSI16:1,2010-11-01T22:15:00Z,29.4012,-89.0355,1.0,29.564,11111222 
WAVCIS,ioos:station:WAVCIS:CSI16:1,2010-11-01T22:30:00Z,29.4012,-89.0355,1.0,29.492,11111222 
WAVCIS,ioos:station:WAVCIS:CSI16:1,2010-11-01T22:45:00Z,29.4012,-89.0355,1.0,29.011,11111222 
WAVCIS,ioos:station:WAVCIS:CSI16:1,2010-11-01T23:00:00Z,29.4012,-89.0355,1.0,28.702,11111222 
WAVCIS,ioos:station:WAVCIS:CSI16:1,2010-11-01T23:15:00Z,29.4012,-89.0355,1.0,28.917,11111222 
WAVCIS,ioos:station:WAVCIS:CSI16:1,2010-11-01T23:30:00Z,29.4012,-89.0355,1.0,29.694,11111222 
WAVCIS,ioos:station:WAVCIS:CSI16:1,2010-11-01T23:45:00Z,29.4012,-89.0355,1.0,26.591,11111222 
WAVCIS,ioos:station:WAVCIS:CSI16:1,2010-11-02T00:00:00Z,29.4012,-89.0355,1.0,25.581,11111222 
WAVCIS,ioos:station:WAVCIS:CSI16:1,2010-11-02T00:15:00Z,29.4012,-89.0355,1.0,26.611,11111222 
WAVCIS,ioos:station:WAVCIS:CSI16:1,2010-11-02T00:30:00Z,29.4012,-89.0355,1.0,26.021,11111222 
WAVCIS,ioos:station:WAVCIS:CSI16:1,2010-11-02T00:45:00Z,29.4012,-89.0355,1.0,26.041,11111222 
WAVCIS,ioos:station:WAVCIS:CSI16:1,2010-11-02T01:00:00Z,29.4012,-89.0355,1.0,26.204,11111222 
WAVCIS,ioos:station:WAVCIS:CSI16:1,2010-11-02T01:15:00Z,29.4012,-89.0355,1.0,25.91,11111222 
WAVCIS,ioos:station:WAVCIS:CSI16:1,2010-11-02T01:30:00Z,29.4012,-89.0355,1.0,26.287,11111222 
WAVCIS,ioos:station:WAVCIS:CSI16:1,2010-11-02T01:45:00Z,29.4012,-89.0355,1.0,26.85,11111222 
WAVCIS,ioos:station:WAVCIS:CSI16:1,2010-11-02T02:00:00Z,29.4012,-89.0355,1.0,26.677,11111222 
WAVCIS,ioos:station:WAVCIS:CSI16:1,2010-11-02T02:15:00Z,29.4012,-89.0355,1.0,26.454,11111222 
WAVCIS,ioos:station:WAVCIS:CSI16:1,2010-11-02T02:30:00Z,29.4012,-89.0355,1.0,25.696,11111222 
WAVCIS,ioos:station:WAVCIS:CSI16:1,2010-11-02T02:45:00Z,29.4012,-89.0355,1.0,24.501,11111222 
WAVCIS,ioos:station:WAVCIS:CSI16:1,2010-11-02T03:00:00Z,29.4012,-89.0355,1.0,26.6,11111222 
WAVCIS,ioos:station:WAVCIS:CSI16:1,2010-11-02T03:15:00Z,29.4012,-89.0355,1.0,26.827,11111222 
WAVCIS,ioos:station:WAVCIS:CSI16:1,2010-11-02T03:30:00Z,29.4012,-89.0355,1.0,27.037,11111222 
WAVCIS,ioos:station:WAVCIS:CSI16:1,2010-11-02T03:45:00Z,29.4012,-89.0355,1.0,26.935,11111222 
WAVCIS,ioos:station:WAVCIS:CSI16:1,2010-11-02T04:00:00Z,29.4012,-89.0355,1.0,27.249,11111222 
WAVCIS,ioos:station:WAVCIS:CSI16:1,2010-11-02T04:15:00Z,29.4012,-89.0355,1.0,27.266,11111222 
WAVCIS,ioos:station:WAVCIS:CSI16:1,2010-11-02T04:30:00Z,29.4012,-89.0355,1.0,27.267,11111222 
WAVCIS,ioos:station:WAVCIS:CSI16:1,2010-11-02T04:45:00Z,29.4012,-89.0355,1.0,27.164,11111222 
WAVCIS,ioos:station:WAVCIS:CSI16:1,2010-11-02T05:00:00Z,29.4012,-89.0355,1.0,27.166,11111222 
WAVCIS,ioos:station:WAVCIS:CSI16:1,2010-11-02T05:15:00Z,29.4012,-89.0355,1.0,25.985,11111222 
WAVCIS,ioos:station:WAVCIS:CSI16:1,2010-11-02T05:30:00Z,29.4012,-89.0355,1.0,27.373,11111222 
WAVCIS,ioos:station:WAVCIS:CSI16:1,2010-11-02T05:45:00Z,29.4012,-89.0355,1.0,27.284,11111222 
WAVCIS,ioos:station:WAVCIS:CSI16:1,2010-11-02T06:00:00Z,29.4012,-89.0355,1.0,27.162,11111222 
WAVCIS,ioos:station:WAVCIS:CSI16:1,2010-11-02T06:15:00Z,29.4012,-89.0355,1.0,26.671,11111222 
WAVCIS,ioos:station:WAVCIS:CSI16:1,2010-11-02T06:30:00Z,29.4012,-89.0355,1.0,26.021,11111222 
WAVCIS,ioos:station:WAVCIS:CSI16:1,2010-11-02T06:45:00Z,29.4012,-89.0355,1.0,26.196,11111222 
WAVCIS,ioos:station:WAVCIS:CSI16:1,2010-11-02T07:00:00Z,29.4012,-89.0355,1.0,25.927,11111222 
WAVCIS,ioos:station:WAVCIS:CSI16:1,2010-11-02T07:15:00Z,29.4012,-89.0355,1.0,27.141,11111222 
WAVCIS,ioos:station:WAVCIS:CSI16:1,2010-11-02T07:30:00Z,29.4012,-89.0355,1.0,27.068,11111222 
WAVCIS,ioos:station:WAVCIS:CSI16:1,2010-11-02T07:45:00Z,29.4012,-89.0355,1.0,27.617,11111222 
WAVCIS,ioos:station:WAVCIS:CSI16:1,2010-11-02T08:00:00Z,29.4012,-89.0355,1.0,27.861,11111222 
WAVCIS,ioos:station:WAVCIS:CSI16:1,2010-11-02T08:15:00Z,29.4012,-89.0355,1.0,26.854,11111222 
WAVCIS,ioos:station:WAVCIS:CSI16:1,2010-11-02T08:30:00Z,29.4012,-89.0355,1.0,28.366,11111222 
WAVCIS,ioos:station:WAVCIS:CSI16:1,2010-11-02T08:45:00Z,29.4012,-89.0355,1.0,28.247,11111222 
WAVCIS,ioos:station:WAVCIS:CSI16:1,2010-11-02T09:00:00Z,29.4012,-89.0355,1.0,28.475,11111222 
WAVCIS,ioos:station:WAVCIS:CSI16:1,2010-11-02T09:15:00Z,29.4012,-89.0355,1.0,28.556,11111222 
WAVCIS,ioos:station:WAVCIS:CSI16:1,2010-11-02T09:30:00Z,29.4012,-89.0355,1.0,28.739,11111222 
WAVCIS,ioos:station:WAVCIS:CSI16:1,2010-11-02T09:45:00Z,29.4012,-89.0355,1.0,28.705,11111222 
WAVCIS,ioos:station:WAVCIS:CSI16:1,2010-11-02T10:00:00Z,29.4012,-89.0355,1.0,28.427,11111222 
WAVCIS,ioos:station:WAVCIS:CSI16:1,2010-11-02T10:15:00Z,29.4012,-89.0355,1.0,28.684,11111222 
WAVCIS,ioos:station:WAVCIS:CSI16:1,2010-11-02T10:30:00Z,29.4012,-89.0355,1.0,28.533,11111222 
WAVCIS,ioos:station:WAVCIS:CSI16:1,2010-11-02T10:45:00Z,29.4012,-89.0355,1.0,28.888,11111222 
WAVCIS,ioos:station:WAVCIS:CSI16:1,2010-11-02T11:00:00Z,29.4012,-89.0355,1.0,28.996,11111222 
WAVCIS,ioos:station:WAVCIS:CSI16:1,2010-11-02T11:15:00Z,29.4012,-89.0355,1.0,28.479,11111222 
WAVCIS,ioos:station:WAVCIS:CSI16:1,2010-11-02T11:30:00Z,29.4012,-89.0355,1.0,28.206,11111222 
WAVCIS,ioos:station:WAVCIS:CSI16:1,2010-11-02T11:45:00Z,29.4012,-89.0355,1.0,28.683,11111222 
WAVCIS,ioos:station:WAVCIS:CSI16:1,2010-11-02T12:00:00Z,29.4012,-89.0355,1.0,27.994,11111222 
WAVCIS,ioos:station:WAVCIS:CSI16:1,2010-11-02T12:15:00Z,29.4012,-89.0355,1.0,28.632,11111222 
WAVCIS,ioos:station:WAVCIS:CSI16:1,2010-11-02T12:30:00Z,29.4012,-89.0355,1.0,26.636,11111222 
WAVCIS,ioos:station:WAVCIS:CSI16:1,2010-11-02T12:45:00Z,29.4012,-89.0355,1.0,29.004,11111222 
WAVCIS,ioos:station:WAVCIS:CSI16:1,2010-11-02T13:00:00Z,29.4012,-89.0355,1.0,28.557,11111222 
WAVCIS,ioos:station:WAVCIS:CSI16:1,2010-11-02T13:15:00Z,29.4012,-89.0355,1.0,29.259,11111222 
WAVCIS,ioos:station:WAVCIS:CSI16:1,2010-11-02T13:30:00Z,29.4012,-89.0355,1.0,29.333,11111222 
WAVCIS,ioos:station:WAVCIS:CSI16:1,2010-11-02T13:45:00Z,29.4012,-89.0355,1.0,29.478,11111222 
WAVCIS,ioos:station:WAVCIS:CSI16:1,2010-11-02T14:00:00Z,29.4012,-89.0355,1.0,29.481,11111222 
WAVCIS,ioos:station:WAVCIS:CSI16:1,2010-11-02T14:15:00Z,29.4012,-89.0355,1.0,29.413,11111222 
WAVCIS,ioos:station:WAVCIS:CSI16:1,2010-11-02T14:30:00Z,29.4012,-89.0355,1.0,29.472,11111222 
WAVCIS,ioos:station:WAVCIS:CSI16:1,2010-11-02T14:45:00Z,29.4012,-89.0355,1.0,29.133,11111222 
WAVCIS,ioos:station:WAVCIS:CSI16:1,2010-11-02T15:00:00Z,29.4012,-89.0355,1.0,28.466,11111222 
WAVCIS,ioos:station:WAVCIS:CSI16:1,2010-11-02T15:15:00Z,29.4012,-89.0355,1.0,29.49,11111222 
WAVCIS,ioos:station:WAVCIS:CSI16:1,2010-11-02T15:30:00Z,29.4012,-89.0355,1.0,29.38,11111222 
WAVCIS,ioos:station:WAVCIS:CSI16:1,2010-11-02T15:45:00Z,29.4012,-89.0355,1.0,29.241,11111222 
WAVCIS,ioos:station:WAVCIS:CSI16:1,2010-11-02T16:00:00Z,29.4012,-89.0355,1.0,29.462,11111222 
WAVCIS,ioos:station:WAVCIS:CSI16:1,2010-11-02T16:15:00Z,29.4012,-89.0355,1.0,29.479,11111222 
WAVCIS,ioos:station:WAVCIS:CSI16:1,2010-11-02T16:30:00Z,29.4012,-89.0355,1.0,29.577,11111222 
WAVCIS,ioos:station:WAVCIS:CSI16:1,2010-11-02T16:45:00Z,29.4012,-89.0355,1.0,24.365,11111222 
WAVCIS,ioos:station:WAVCIS:CSI16:1,2010-11-02T17:00:00Z,29.4012,-89.0355,1.0,28.973,11111222 
WAVCIS,ioos:station:WAVCIS:CSI16:1,2010-11-02T17:15:00Z,29.4012,-89.0355,1.0,29.27,11111222 
WAVCIS,ioos:station:WAVCIS:CSI16:1,2010-11-02T17:30:00Z,29.4012,-89.0355,1.0,30.222,11111222 
WAVCIS,ioos:station:WAVCIS:CSI16:1,2010-11-02T17:45:00Z,29.4012,-89.0355,1.0,30.025,11111222 
WAVCIS,ioos:station:WAVCIS:CSI16:1,2010-11-02T18:00:00Z,29.4012,-89.0355,1.0,29.867,11111222 
WAVCIS,ioos:station:WAVCIS:CSI16:1,2010-11-02T18:15:00Z,29.4012,-89.0355,1.0,29.801,11111222 
WAVCIS,ioos:station:WAVCIS:CSI16:1,2010-11-02T18:30:00Z,29.4012,-89.0355,1.0,29.377,11111222 
WAVCIS,ioos:station:WAVCIS:CSI16:1,2010-11-02T18:45:00Z,29.4012,-89.0355,1.0,29.66,11111222 
WAVCIS,ioos:station:WAVCIS:CSI16:1,2010-11-02T19:00:00Z,29.4012,-89.0355,1.0,29.819,11111222 
WAVCIS,ioos:station:WAVCIS:CSI16:1,2010-11-02T19:15:00Z,29.4012,-89.0355,1.0,29.951,11111222 
WAVCIS,ioos:station:WAVCIS:CSI16:1,2010-11-02T19:30:00Z,29.4012,-89.0355,1.0,29.748,11111222 
WAVCIS,ioos:station:WAVCIS:CSI16:1,2010-11-02T19:45:00Z,29.4012,-89.0355,1.0,29.82,11111222 
WAVCIS,ioos:station:WAVCIS:CSI16:1,2010-11-02T20:00:00Z,29.4012,-89.0355,1.0,29.926,11111222 
WAVCIS,ioos:station:WAVCIS:CSI16:1,2010-11-02T20:15:00Z,29.4012,-89.0355,1.0,29.279,11111222 
WAVCIS,ioos:station:WAVCIS:CSI16:1,2010-11-02T20:30:00Z,29.4012,-89.0355,1.0,29.766,11111222 
WAVCIS,ioos:station:WAVCIS:CSI16:1,2010-11-02T20:45:00Z,29.4012,-89.0355,1.0,30.163,11111222 
WAVCIS,ioos:station:WAVCIS:CSI16:1,2010-11-02T21:00:00Z,29.4012,-89.0355,1.0,30.13,11111222 
WAVCIS,ioos:station:WAVCIS:CSI16:1,2010-11-02T21:15:00Z,29.4012,-89.0355,1.0,29.806,11111222 
WAVCIS,ioos:station:WAVCIS:CSI16:1,2010-11-02T21:30:00Z,29.4012,-89.0355,1.0,29.806,11111222 
WAVCIS,ioos:station:WAVCIS:CSI16:1,2010-11-02T21:45:00Z,29.4012,-89.0355,1.0,30.102,11111222 
WAVCIS,ioos:station:WAVCIS:CSI16:1,2010-11-02T22:00:00Z,29.4012,-89.0355,1.0,29.835,11111222 
WAVCIS,ioos:station:WAVCIS:CSI16:1,2010-11-02T22:15:00Z,29.4012,-89.0355,1.0,29.082,11111222 
WAVCIS,ioos:station:WAVCIS:CSI16:1,2010-11-02T22:30:00Z,29.4012,-89.0355,1.0,25.598,11111222 
WAVCIS,ioos:station:WAVCIS:CSI16:1,2010-11-02T22:45:00Z,29.4012,-89.0355,1.0,27.607,11111222 
WAVCIS,ioos:station:WAVCIS:CSI16:1,2010-11-02T23:00:00Z,29.4012,-89.0355,1.0,27.995,11111222 
WAVCIS,ioos:station:WAVCIS:CSI16:1,2010-11-02T23:15:00Z,29.4012,-89.0355,1.0,27.036,11111222 
WAVCIS,ioos:station:WAVCIS:CSI16:1,2010-11-02T23:30:00Z,29.4012,-89.0355,1.0,25.857,11111222 
WAVCIS,ioos:station:WAVCIS:CSI16:1,2010-11-02T23:45:00Z,29.4012,-89.0355,1.0,25.525,11111222 
WAVCIS,ioos:station:WAVCIS:CSI16:1,2010-11-03T00:00:00Z,29.4012,-89.0355,1.0,24.522,11111222 
WAVCIS,ioos:station:WAVCIS:CSI16:1,2010-11-03T00:15:00Z,29.4012,-89.0355,1.0,24.77,11111222 
WAVCIS,ioos:station:WAVCIS:CSI16:1,2010-11-03T00:30:00Z,29.4012,-89.0355,1.0,23.463,11111222 
WAVCIS,ioos:station:WAVCIS:CSI16:1,2010-11-03T00:45:00Z,29.4012,-89.0355,1.0,25.943,11111222 
WAVCIS,ioos:station:WAVCIS:CSI16:1,2010-11-03T01:00:00Z,29.4012,-89.0355,1.0,22.789,11111222 
WAVCIS,ioos:station:WAVCIS:CSI16:1,2010-11-03T01:15:00Z,29.4012,-89.0355,1.0,23.264,11111222 
WAVCIS,ioos:station:WAVCIS:CSI16:1,2010-11-03T01:30:00Z,29.4012,-89.0355,1.0,22.422,11111222 
WAVCIS,ioos:station:WAVCIS:CSI16:1,2010-11-03T01:45:00Z,29.4012,-89.0355,1.0,21.717,11111222 
WAVCIS,ioos:station:WAVCIS:CSI16:1,2010-11-03T02:00:00Z,29.4012,-89.0355,1.0,21.337,11111222 
WAVCIS,ioos:station:WAVCIS:CSI16:1,2010-11-03T02:15:00Z,29.4012,-89.0355,1.0,22.258,11111222 
WAVCIS,ioos:station:WAVCIS:CSI16:1,2010-11-03T02:30:00Z,29.4012,-89.0355,1.0,23.689,11111222 
WAVCIS,ioos:station:WAVCIS:CSI16:1,2010-11-03T02:45:00Z,29.4012,-89.0355,1.0,23.333,11111222 
WAVCIS,ioos:station:WAVCIS:CSI16:1,2010-11-03T03:00:00Z,29.4012,-89.0355,1.0,25.406,11111222 
WAVCIS,ioos:station:WAVCIS:CSI16:1,2010-11-03T03:15:00Z,29.4012,-89.0355,1.0,23.897,11111222 
WAVCIS,ioos:station:WAVCIS:CSI16:1,2010-11-03T03:30:00Z,29.4012,-89.0355,1.0,23.973,11111222 
WAVCIS,ioos:station:WAVCIS:CSI16:1,2010-11-03T03:45:00Z,29.4012,-89.0355,1.0,24.349,11111222 
WAVCIS,ioos:station:WAVCIS:CSI16:1,2010-11-03T04:00:00Z,29.4012,-89.0355,1.0,24.709,11111222 
WAVCIS,ioos:station:WAVCIS:CSI16:1,2010-11-03T04:15:00Z,29.4012,-89.0355,1.0,25.702,11111222 
WAVCIS,ioos:station:WAVCIS:CSI16:1,2010-11-03T04:30:00Z,29.4012,-89.0355,1.0,26.304,11111222 
WAVCIS,ioos:station:WAVCIS:CSI16:1,2010-11-03T04:45:00Z,29.4012,-89.0355,1.0,25.725,11111222 
WAVCIS,ioos:station:WAVCIS:CSI16:1,2010-11-03T05:00:00Z,29.4012,-89.0355,1.0,26.047,11111222 
WAVCIS,ioos:station:WAVCIS:CSI16:1,2010-11-03T05:15:00Z,29.4012,-89.0355,1.0,26.477,11111222 
WAVCIS,ioos:station:WAVCIS:CSI16:1,2010-11-03T05:30:00Z,29.4012,-89.0355,1.0,26.849,11111222 
WAVCIS,ioos:station:WAVCIS:CSI16:1,2010-11-03T05:45:00Z,29.4012,-89.0355,1.0,26.984,11111222 
WAVCIS,ioos:station:WAVCIS:CSI16:1,2010-11-03T06:00:00Z,29.4012,-89.0355,1.0,26.947,11111222 
WAVCIS,ioos:station:WAVCIS:CSI16:1,2010-11-03T06:15:00Z,29.4012,-89.0355,1.0,27.229,11111222 
WAVCIS,ioos:station:WAVCIS:CSI16:1,2010-11-03T06:30:00Z,29.4012,-89.0355,1.0,27.628,11111222 
WAVCIS,ioos:station:WAVCIS:CSI16:1,2010-11-03T06:45:00Z,29.4012,-89.0355,1.0,27.599,11111222 
WAVCIS,ioos:station:WAVCIS:CSI16:1,2010-11-03T07:00:00Z,29.4012,-89.0355,1.0,27.558,11111222 
WAVCIS,ioos:station:WAVCIS:CSI16:1,2010-11-03T07:15:00Z,29.4012,-89.0355,1.0,27.751,11111222 
WAVCIS,ioos:station:WAVCIS:CSI16:1,2010-11-03T07:30:00Z,29.4012,-89.0355,1.0,27.922,11111222 
WAVCIS,ioos:station:WAVCIS:CSI16:1,2010-11-03T07:45:00Z,29.4012,-89.0355,1.0,28.063,11111222 
WAVCIS,ioos:station:WAVCIS:CSI16:1,2010-11-03T08:00:00Z,29.4012,-89.0355,1.0,28.124,11111222 
WAVCIS,ioos:station:WAVCIS:CSI16:1,2010-11-03T08:15:00Z,29.4012,-89.0355,1.0,28.159,11111222 
WAVCIS,ioos:station:WAVCIS:CSI16:1,2010-11-03T08:30:00Z,29.4012,-89.0355,1.0,28.408,11111222 
WAVCIS,ioos:station:WAVCIS:CSI16:1,2010-11-03T08:45:00Z,29.4012,-89.0355,1.0,28.673,11111222 
WAVCIS,ioos:station:WAVCIS:CSI16:1,2010-11-03T09:00:00Z,29.4012,-89.0355,1.0,28.576,11111222 
WAVCIS,ioos:station:WAVCIS:CSI16:1,2010-11-03T09:15:00Z,29.4012,-89.0355,1.0,28.684,11111222 
WAVCIS,ioos:station:WAVCIS:CSI16:1,2010-11-03T09:30:00Z,29.4012,-89.0355,1.0,28.784,11111222 
WAVCIS,ioos:station:WAVCIS:CSI16:1,2010-11-03T09:45:00Z,29.4012,-89.0355,1.0,28.783,11111222 
WAVCIS,ioos:station:WAVCIS:CSI16:1,2010-11-03T10:00:00Z,29.4012,-89.0355,1.0,28.913,11111222 
WAVCIS,ioos:station:WAVCIS:CSI16:1,2010-11-03T10:15:00Z,29.4012,-89.0355,1.0,28.948,11111222 
WAVCIS,ioos:station:WAVCIS:CSI16:1,2010-11-03T10:30:00Z,29.4012,-89.0355,1.0,28.933,11111222 
WAVCIS,ioos:station:WAVCIS:CSI16:1,2010-11-03T10:45:00Z,29.4012,-89.0355,1.0,28.978,11111222 
WAVCIS,ioos:station:WAVCIS:CSI16:1,2010-11-03T11:00:00Z,29.4012,-89.0355,1.0,29.01,11111222 
WAVCIS,ioos:station:WAVCIS:CSI16:1,2010-11-03T11:15:00Z,29.4012,-89.0355,1.0,29.016,11111222 
WAVCIS,ioos:station:WAVCIS:CSI16:1,2010-11-03T11:30:00Z,29.4012,-89.0355,1.0,29.072,11111222 
WAVCIS,ioos:station:WAVCIS:CSI16:1,2010-11-03T11:45:00Z,29.4012,-89.0355,1.0,29.038,11111222 
WAVCIS,ioos:station:WAVCIS:CSI16:1,2010-11-03T12:00:00Z,29.4012,-89.0355,1.0,29.095,11111222 
WAVCIS,ioos:station:WAVCIS:CSI16:1,2010-11-03T12:15:00Z,29.4012,-89.0355,1.0,29.107,11111222 
WAVCIS,ioos:station:WAVCIS:CSI16:1,2010-11-03T12:30:00Z,29.4012,-89.0355,1.0,29.19,11111222 
WAVCIS,ioos:station:WAVCIS:CSI16:1,2010-11-03T12:45:00Z,29.4012,-89.0355,1.0,29.193,11111222 
WAVCIS,ioos:station:WAVCIS:CSI16:1,2010-11-03T13:00:00Z,29.4012,-89.0355,1.0,29.273,11111222 
WAVCIS,ioos:station:WAVCIS:CSI16:1,2010-11-03T13:15:00Z,29.4012,-89.0355,1.0,29.067,11111222 
WAVCIS,ioos:station:WAVCIS:CSI16:1,2010-11-03T13:30:00Z,29.4012,-89.0355,1.0,29.094,11111222 
WAVCIS,ioos:station:WAVCIS:CSI16:1,2010-11-03T13:45:00Z,29.4012,-89.0355,1.0,29.059,11111222 
WAVCIS,ioos:station:WAVCIS:CSI16:1,2010-11-03T14:00:00Z,29.4012,-89.0355,1.0,28.983,11111222 
WAVCIS,ioos:station:WAVCIS:CSI16:1,2010-11-03T14:15:00Z,29.4012,-89.0355,1.0,28.935,11111222 
WAVCIS,ioos:station:WAVCIS:CSI16:1,2010-11-03T14:30:00Z,29.4012,-89.0355,1.0,26.881,11111222 
WAVCIS,ioos:station:WAVCIS:CSI16:1,2010-11-03T14:45:00Z,29.4012,-89.0355,1.0,26.669,11111222 
WAVCIS,ioos:station:WAVCIS:CSI16:1,2010-11-03T15:00:00Z,29.4012,-89.0355,1.0,26.545,11111222 
WAVCIS,ioos:station:WAVCIS:CSI16:1,2010-11-03T15:15:00Z,29.4012,-89.0355,1.0,26.367,11111222 